Date,TemperatureHighF,TemperatureAvgF,TemperatureLowF,DewpointHighF,DewpointAvgF,DewpointLowF,HumidityHigh,HumidityAvg,HumidityLow,PressureMaxIn,PressureMinIn,WindSpeedMaxMPH,WindSpeedAvgMPH,GustSpeedMaxMPH,PrecipitationSumIn
2013-4-1,69,54,46,51,44,26,93,72,35,29.93,29.69,13,6,17,0.02
2013-4-2,51,44,35,26,20,15,53,40,25,30.16,29.94,13,6,19,0.00
2013-4-3,44,37,34,20,19,18,53,48,34,30.25,30.16,9,3,14,0.00
2013-4-4,44,42,38,35,30,21,84,61,45,30.42,30.14,13,6,16,0.09
2013-4-5,58,47,39,44,39,30,95,74,43,30.14,29.80,16,6,18,0.80
2013-4-6,52,44,42,36,30,22,72,57,40,30.34,29.98,16,8,19,0.00
2013-4-7,59,50,42,48,42,33,84,76,66,30.34,30.04,15,8,20,0.00
2013-4-8,72,58,55,55,51,47,86,76,51,30.09,30.01,9,6,14,0.00
2013-4-9,84,73,61,58,56,51,83,58,37,30.07,29.97,11,6,17,0.00
2013-4-10,90,75,63,61,58,53,79,58,34,29.97,29.82,10,6,18,0.00
2013-4-11,75,62,55,62,55,49,90,79,60,29.92,29.83,13,3,16,0.00
2013-4-15,55,52,50,49,48,47,92,87,81,30.34,30.27,14,6,19,0.00
2013-4-16,62,56,50,58,52,48,93,88,82,30.36,30.17,14,8,17,0.00
2013-4-17,71,59,52,62,55,48,92,85,69,30.26,30.13,16,6,20,0.00
2013-4-19,66,59,56,64,57,55,96,94,88,29.99,29.89,13,6,0,0.01
2013-4-20,59,57,53,36,33,31,49,41,35,30.30,30.07,13,7,18,0.60
2013-4-21,53,47,44,36,31,25,69,54,43,30.60,30.30,18,9,22,0.00
2013-4-22,50,48,45,46,42,34,90,81,64,30.60,30.39,26,20,32,0.00
2013-4-23,50,48,46,48,46,44,93,90,86,30.39,30.13,23,14,31,0.01
2013-4-24,60,53,45,56,50,43,95,89,82,30.15,29.89,15,7,20,0.01
2013-4-25,62,55,49,57,43,36,85,64,46,30.30,29.92,14,7,23,0.00
2013-4-26,61,54,46,50,44,38,89,70,51,30.43,30.30,8,4,11,0.00
2013-4-27,58,54,47,49,45,36,84,72,55,30.44,30.32,9,4,11,0.00
2013-4-28,60,55,49,52,47,42,86,76,58,30.33,30.20,12,4,14,0.00
2013-4-29,57,55,54,55,54,52,100,95,84,30.21,30.11,21,13,25,1.36
2013-4-30,55,54,53,54,52,50,97,94,90,30.27,30.11,21,15,29,0.33